Regional Weather Roundup
Issued by NWS

Home | Current Version | Previous Version | Graphics & Text | Print | Product List | Glossary On
Versions: 1 2 3 4 5 6 7 8 9 10 11 12 13 14 15 16 17 18 19 20 21 22 23 24 25 26 27 28 29 30 31 32 33 34 35 36 37 38 39 40 41 42 43 44 45 46 47 48 49 50
000
ASUS43 KOAX 310902
RWRNE

WEATHER ROUNDUP FOR NEBRASKA
NATIONAL WEATHER SERVICE OMAHA NE
300 AM CST SAT JAN 31 2015

NOTES: SATELLITE DATA IS BEING USED TO AUGMENT CLOUD COVER ABOVE
       12000 FEET.
       "FAIR" INDICATES FEW OR NO CLOUDS BELOW 12,000 FEET WITH NO
       SIGNIFICANT WEATHER AND/OR OBSTRUCTIONS TO VISIBILITY.

  * THESE STATIONS DO NOT REPORT WEATHER SUCH AS RAIN...SNOW OR FOG.

NEZ001>004-019>022-054>056-311000-
NEBRASKA PANHANDLE

CITY           SKY/WX    TMP DP  RH WIND       PRES   REMARKS
SCOTTSBLUFF    CLOUDY    33  26  75 CALM      30.02F
ALLIANCE       CLOUDY    28  26  92 N6        30.01F WCI  22
CHADRON        CLOUDY    27  24  89 CALM      30.05F
SIDNEY         CLOUDY    32  28  85 NW7       29.98F WCI  26
$$

NEZ057>060-069>072-079>082-311000-
SOUTHWEST NEBRASKA

CITY           SKY/WX    TMP DP  RH WIND       PRES   REMARKS
NORTH PLATTE   CLOUDY    35  32  88 S8        30.05F WCI  29
IMPERIAL       CLOUDY    34  32  92 SE8       30.00F WCI  27
MCCOOK         LGT SNOW  34  32  92 SE6       30.07F FOG     WCI  29
$$

NEZ005>010-023>029-035>040-094-311000-
NORTH CENTRAL NEBRASKA

CITY           SKY/WX    TMP DP  RH WIND       PRES   REMARKS
VALENTINE      CLOUDY    27  24  89 CALM      30.05S
BROKEN BOW     CLOUDY    36  33  89 S10       30.07F WCI  28
ORD            CLOUDY    34  30  85 S7        30.10F WCI  28
$$

NEZ041-046>049-061>064-073>077-083>087-311000-
SOUTH CENTRAL NEBRASKA

CITY           SKY/WX    TMP DP  RH WIND       PRES   REMARKS
GRAND ISLAND   CLOUDY    36  32  85 S17       30.14F WCI  26
HASTINGS       MIX PCPN  33  31  92 S7        30.14F WCI  27
KEARNEY *      CLOUDY    34  30  86 S10       30.12F WCI  26
$$

NEZ011>018-030>034-042>045-311000-
NORTHEAST NEBRASKA

CITY           SKY/WX    TMP DP  RH WIND       PRES   REMARKS
NORFOLK        CLOUDY    37  32  82 SW7       30.13F WCI  32
COLUMBUS *     CLOUDY    37  30  75 SW12      30.17F WCI  30
TEKAMAH        CLOUDY    34  28  79 S10       30.18F WCI  26
$$

NEZ050>053-065>068-078-088>093-311000-
SOUTHEAST NEBRASKA

CITY           SKY/WX    TMP DP  RH WIND       PRES   REMARKS
LINCOLN        CLOUDY    38  33  82 SW10      30.21F WCI  31
OMAHA EPPLEY   CLOUDY    32  26  78 SE8       30.21F WCI  25
FALLS CITY     LGT RAIN  37  32  82 SW9       30.26F WCI  30
$$

NEZ044-045-051>053-067-311000-
OMAHA AREA

CITY           SKY/WX    TMP DP  RH WIND       PRES   REMARKS
OMAHA EPPLEY   CLOUDY    32  26  78 SE8       30.21F WCI  25
OFFUTT AFB     CLOUDY    30  26  83 E3        30.21F
$$


USA.gov is the U.S. government's official web portal to all federal, state and local government web resources and services.